DLH4DE EGLL-EDDF

Flight info

Callsign DLH4DE
Flight time 0h 56m
Altitude 35000
Route DET L6 DVR UL9 KONAN UL607 SPI T180 NIVNU T847 IMCOM IMCOM1D
Aircraft A320/M-SDE3FGHIRWY/LB1

Departure

Time 2026-04-15 11:55
Airport London Heathrow Airport (EGLL)

Arrival

Time 2026-04-15 12:51
Airport Frankfurt Main Airport (EDDF)
Time Latitude Longitude Altitude Speed Heading
2026-04-15 11:21 51.47144 -0.46499 87 ft 0 kts 235°
2026-04-15 11:23 51.47144 -0.46498 87 ft 0 kts 235°
2026-04-15 11:38 51.47145 -0.46498 87 ft 0 kts 235°
2026-04-15 11:43 51.47149 -0.46488 87 ft 4 kts 235°
2026-04-15 11:43 51.47164 -0.46453 89 ft 4 kts 235°
2026-04-15 11:43 51.47179 -0.46419 89 ft 4 kts 245°
2026-04-15 11:43 51.47181 -0.46381 90 ft 4 kts 297°
2026-04-15 11:44 51.47165 -0.46347 88 ft 4 kts 320°
2026-04-15 11:44 51.47151 -0.46330 87 ft 0 kts 326°
2026-04-15 11:46 51.47163 -0.46340 89 ft 7 kts 325°
2026-04-15 11:47 51.47211 -0.46395 87 ft 8 kts 325°
2026-04-15 11:47 51.47243 -0.46458 87 ft 7 kts 291°
2026-04-15 11:47 51.47242 -0.46521 87 ft 6 kts 263°
2026-04-15 11:47 51.47238 -0.46645 87 ft 14 kts 271°
2026-04-15 11:48 51.47311 -0.46729 87 ft 14 kts 360°
2026-04-15 11:48 51.47403 -0.46736 87 ft 13 kts 349°
2026-04-15 11:48 51.47483 -0.46754 87 ft 11 kts 12°
2026-04-15 11:48 51.47515 -0.46666 87 ft 9 kts 87°
2026-04-15 11:49 51.47514 -0.46519 87 ft 19 kts 89°
2026-04-15 11:49 51.47514 -0.46283 87 ft 21 kts 90°
2026-04-15 11:49 51.47516 -0.46062 87 ft 19 kts 89°
2026-04-15 11:49 51.47517 -0.45863 87 ft 17 kts 90°
2026-04-15 11:50 51.47508 -0.45687 88 ft 15 kts 94°
2026-04-15 11:50 51.47507 -0.45525 87 ft 16 kts 90°
2026-04-15 11:50 51.47508 -0.45289 87 ft 24 kts 89°
2026-04-15 11:50 51.47508 -0.45034 90 ft 22 kts 89°
2026-04-15 11:51 51.47509 -0.44796 88 ft 20 kts 89°
2026-04-15 11:51 51.47505 -0.44579 90 ft 18 kts 94°
2026-04-15 11:51 51.47503 -0.44385 87 ft 16 kts 90°
2026-04-15 11:51 51.47503 -0.44212 87 ft 14 kts 90°
2026-04-15 11:52 51.47504 -0.44031 88 ft 18 kts 90°
2026-04-15 11:52 51.47504 -0.43845 88 ft 15 kts 91°
2026-04-15 11:52 51.47456 -0.43715 88 ft 13 kts 109°
2026-04-15 11:52 51.47453 -0.43565 87 ft 17 kts 90°
2026-04-15 11:53 51.47456 -0.43371 87 ft 16 kts 77°
2026-04-15 11:53 51.47521 -0.43262 88 ft 11 kts 19°
2026-04-15 11:53 51.47589 -0.43256 90 ft 11 kts
2026-04-15 11:53 51.47672 -0.43285 90 ft 11 kts 327°
2026-04-15 11:54 51.47720 -0.43362 90 ft 12 kts 315°
2026-04-15 11:54 51.47767 -0.43510 87 ft 15 kts 273°
2026-04-15 11:54 51.47767 -0.43537 87 ft 0 kts 268°
2026-04-15 11:54 51.47767 -0.43554 87 ft 9 kts 268°
2026-04-15 11:55 51.47765 -0.44078 85 ft 83 kts 270°
2026-04-15 11:55 51.47760 -0.45329 87 ft 139 kts 269°
2026-04-15 11:55 51.47749 -0.47075 376 ft 158 kts 262°
2026-04-15 11:55 51.47725 -0.48728 1341 ft 147 kts 260°
2026-04-15 11:56 51.47690 -0.50475 1842 ft 167 kts 262°
2026-04-15 11:56 51.47616 -0.52468 2234 ft 188 kts 253°
2026-04-15 11:56 51.47014 -0.54423 2633 ft 208 kts 225°
2026-04-15 11:56 51.45756 -0.55679 3193 ft 227 kts 195°
2026-04-15 11:57 51.44145 -0.55594 3816 ft 243 kts 165°
2026-04-15 11:57 51.41416 -0.52147 4241 ft 261 kts 142°
2026-04-15 11:57 51.40139 -0.50093 5276 ft 259 kts 141°
2026-04-15 11:58 51.38877 -0.48050 5932 ft 259 kts 141°
2026-04-15 11:58 51.37605 -0.46014 6924 ft 259 kts 141°
2026-04-15 11:58 51.36309 -0.43964 7801 ft 264 kts 142°
2026-04-15 11:58 51.34984 -0.41894 8663 ft 269 kts 142°
2026-04-15 11:59 51.33623 -0.39786 9536 ft 275 kts 142°
2026-04-15 11:59 51.32237 -0.37630 10292 ft 286 kts 139°
2026-04-15 11:59 51.31186 -0.34735 10563 ft 325 kts 111°
2026-04-15 11:59 51.30881 -0.30970 10839 ft 355 kts 95°
2026-04-15 12:00 51.31024 -0.26973 11470 ft 366 kts 89°
2026-04-15 12:00 51.31303 -0.22894 12231 ft 371 kts 89°
2026-04-15 12:00 51.31543 -0.18786 12971 ft 374 kts 91°
2026-04-15 12:00 51.31678 -0.14626 13750 ft 376 kts 94°
2026-04-15 12:01 51.31706 -0.10427 14442 ft 378 kts 96°
2026-04-15 12:01 51.31655 -0.06214 15037 ft 382 kts 97°
2026-04-15 12:01 51.31563 -0.01935 15675 ft 386 kts 97°
2026-04-15 12:01 51.31460 0.02374 16306 ft 391 kts 97°
2026-04-15 12:02 51.31363 0.06736 16950 ft 395 kts 97°
2026-04-15 12:02 51.31275 0.11093 17561 ft 399 kts 97°
2026-04-15 12:02 51.31195 0.15545 18177 ft 403 kts 97°
2026-04-15 12:02 51.31120 0.20058 18733 ft 408 kts 97°
2026-04-15 12:03 51.31046 0.24600 19298 ft 411 kts 97°
2026-04-15 12:03 51.30969 0.29191 19583 ft 414 kts 97°
2026-04-15 12:03 51.30890 0.33807 20137 ft 417 kts 97°
2026-04-15 12:03 51.30807 0.38464 20689 ft 420 kts 97°
2026-04-15 12:04 51.30719 0.43149 21232 ft 423 kts 97°
2026-04-15 12:04 51.30628 0.47866 21774 ft 426 kts 97°
2026-04-15 12:04 51.30535 0.52617 22316 ft 429 kts 97°
2026-04-15 12:04 51.30422 0.57390 22854 ft 430 kts 100°
2026-04-15 12:05 51.29960 0.62088 23354 ft 426 kts 110°
2026-04-15 12:05 51.29148 0.66636 23775 ft 427 kts 112°
2026-04-15 12:05 51.28307 0.71200 24188 ft 430 kts 112°
2026-04-15 12:05 51.27462 0.75795 24594 ft 433 kts 112°
2026-04-15 12:06 51.26611 0.80418 24993 ft 435 kts 112°
2026-04-15 12:06 51.25753 0.85081 25395 ft 438 kts 112°
2026-04-15 12:06 51.24890 0.89758 25869 ft 441 kts 112°
2026-04-15 12:06 51.24021 0.94468 26225 ft 443 kts 112°
2026-04-15 12:07 51.23142 0.99203 26572 ft 446 kts 112°
2026-04-15 12:07 51.22261 1.03951 26927 ft 449 kts 112°
2026-04-15 12:07 51.21372 1.08730 27261 ft 451 kts 112°
2026-04-15 12:07 51.20472 1.13547 27594 ft 454 kts 112°
2026-04-15 12:08 51.19565 1.18379 27916 ft 456 kts 113°
2026-04-15 12:08 51.18651 1.23231 28240 ft 458 kts 113°
2026-04-15 12:08 51.17733 1.28102 28542 ft 461 kts 113°
2026-04-15 12:08 51.16813 1.33011 28843 ft 464 kts 111°
2026-04-15 12:09 51.16173 1.38089 29129 ft 473 kts 102°
2026-04-15 12:09 51.15902 1.43352 29399 ft 478 kts 100°
2026-04-15 12:09 51.15659 1.48567 29670 ft 480 kts 100°
2026-04-15 12:09 51.15405 1.53873 29933 ft 481 kts 100°
2026-04-15 12:10 51.15144 1.59199 30184 ft 483 kts 100°
2026-04-15 12:10 51.14881 1.64548 30393 ft 485 kts 100°
2026-04-15 12:10 51.14619 1.69893 30675 ft 484 kts 100°
2026-04-15 12:10 51.14356 1.75234 30952 ft 484 kts 100°
2026-04-15 12:11 51.14089 1.80580 31227 ft 484 kts 100°
2026-04-15 12:11 51.13816 1.85917 31501 ft 483 kts 100°
2026-04-15 12:11 51.13540 1.91246 31773 ft 483 kts 100°
2026-04-15 12:11 51.13258 1.96579 32048 ft 483 kts 100°
2026-04-15 12:12 51.12974 2.01909 32328 ft 483 kts 100°
2026-04-15 12:12 51.12693 2.07230 32621 ft 483 kts 100°
2026-04-15 12:12 51.12410 2.12562 32916 ft 483 kts 100°
2026-04-15 12:12 51.12125 2.17887 33213 ft 483 kts 100°
2026-04-15 12:13 51.11838 2.23201 33499 ft 482 kts 100°
2026-04-15 12:13 51.11549 2.28512 33790 ft 482 kts 100°
2026-04-15 12:13 51.11264 2.33755 34074 ft 482 kts 100°
2026-04-15 12:13 51.10972 2.39064 34331 ft 481 kts 100°
2026-04-15 12:14 51.10677 2.44367 34594 ft 481 kts 100°
2026-04-15 12:14 51.10377 2.49654 34859 ft 480 kts 100°
2026-04-15 12:14 51.10069 2.54947 35071 ft 480 kts 100°
2026-04-15 12:15 51.09334 2.65456 35136 ft 475 kts 107°
2026-04-15 12:15 51.07611 2.75514 35135 ft 471 kts 111°
2026-04-15 12:16 51.05789 2.85513 35137 ft 471 kts 111°
2026-04-15 12:16 51.03975 2.95449 35136 ft 471 kts 111°
2026-04-15 12:17 51.02148 3.05451 35134 ft 471 kts 111°
2026-04-15 12:17 51.00313 3.15436 35128 ft 471 kts 110°
2026-04-15 12:18 50.98464 3.25416 35123 ft 471 kts 111°
2026-04-15 12:18 50.96597 3.35392 35120 ft 472 kts 110°
2026-04-15 12:19 50.94741 3.45294 35118 ft 472 kts 110°
2026-04-15 12:19 50.92866 3.55270 35125 ft 472 kts 110°
2026-04-15 12:20 50.90974 3.65231 35126 ft 473 kts 110°
2026-04-15 12:20 50.89051 3.75221 35134 ft 473 kts 110°
2026-04-15 12:21 50.87128 3.85181 35143 ft 473 kts 110°
2026-04-15 12:21 50.85190 3.95146 35154 ft 473 kts 110°
2026-04-15 12:22 50.83237 4.05083 35160 ft 473 kts 110°
2026-04-15 12:22 50.81283 4.15041 35166 ft 474 kts 110°
2026-04-15 12:23 50.79342 4.24920 35168 ft 474 kts 110°
2026-04-15 12:23 50.77356 4.34923 35170 ft 474 kts 110°
2026-04-15 12:24 50.75375 4.44838 35169 ft 474 kts 110°
2026-04-15 12:24 50.73390 4.54712 35163 ft 475 kts 110°
2026-04-15 12:25 50.71398 4.64641 35167 ft 475 kts 109°
2026-04-15 12:25 50.69465 4.74625 35175 ft 477 kts 109°
2026-04-15 12:26 50.67545 4.84635 35187 ft 477 kts 109°
2026-04-15 12:26 50.65593 4.94629 35186 ft 477 kts 109°
2026-04-15 12:27 50.63565 5.04567 35187 ft 477 kts 110°
2026-04-15 12:27 50.61492 5.14482 35189 ft 477 kts 109°
2026-04-15 12:28 50.59422 5.24408 35190 ft 477 kts 109°
2026-04-15 12:28 50.57364 5.34325 35189 ft 477 kts 109°
2026-04-15 12:29 50.55310 5.44184 35195 ft 477 kts 109°
2026-04-15 12:29 50.53209 5.54147 35194 ft 477 kts 109°
2026-04-15 12:30 50.51132 5.63972 35197 ft 477 kts 109°
2026-04-15 12:30 50.49202 5.73945 35016 ft 477 kts 107°
2026-04-15 12:30 50.48295 5.78961 34772 ft 477 kts 106°
2026-04-15 12:31 50.47398 5.83975 34535 ft 477 kts 106°
2026-04-15 12:31 50.46493 5.88990 34298 ft 477 kts 106°
2026-04-15 12:31 50.45572 5.93997 34044 ft 478 kts 107°
2026-04-15 12:31 50.44634 5.99001 33764 ft 478 kts 107°
2026-04-15 12:32 50.43683 6.03996 33514 ft 478 kts 107°
2026-04-15 12:32 50.42723 6.08990 33244 ft 479 kts 107°
2026-04-15 12:32 50.41756 6.13994 32978 ft 479 kts 107°
2026-04-15 12:32 50.40792 6.18995 32716 ft 480 kts 107°
2026-04-15 12:33 50.39829 6.24000 32460 ft 480 kts 107°
2026-04-15 12:33 50.38865 6.29012 32197 ft 480 kts 107°
2026-04-15 12:33 50.37914 6.33951 31923 ft 480 kts 107°
2026-04-15 12:33 50.36954 6.38966 30892 ft 484 kts 105°
2026-04-15 12:34 50.36272 6.44166 29654 ft 490 kts 96°
2026-04-15 12:34 50.35969 6.49422 29122 ft 478 kts 94°
2026-04-15 12:34 50.35668 6.54577 28409 ft 472 kts 95°
2026-04-15 12:34 50.35345 6.59662 27724 ft 467 kts 95°
2026-04-15 12:35 50.34979 6.64678 27052 ft 462 kts 100°
2026-04-15 12:35 50.34087 6.69468 26746 ft 457 kts 110°
2026-04-15 12:35 50.33387 6.72565 26304 ft 454 kts 110°
2026-04-15 12:35 50.32339 6.77211 25611 ft 452 kts 110°
2026-04-15 12:36 50.31296 6.81830 24937 ft 449 kts 110°
2026-04-15 12:36 50.30255 6.86417 24262 ft 447 kts 110°
2026-04-15 12:36 50.29213 6.90983 23571 ft 444 kts 110°
2026-04-15 12:36 50.28173 6.95511 22889 ft 440 kts 110°
2026-04-15 12:37 50.27142 6.99981 22309 ft 434 kts 110°
2026-04-15 12:37 50.26123 7.04401 21735 ft 429 kts 110°
2026-04-15 12:37 50.25117 7.08764 21186 ft 424 kts 110°
2026-04-15 12:37 50.24073 7.13045 20588 ft 420 kts 116°
2026-04-15 12:38 50.22437 7.16798 19907 ft 418 kts 135°
2026-04-15 12:38 50.20247 7.19739 19238 ft 416 kts 143°
2026-04-15 12:38 50.17971 7.22516 18582 ft 415 kts 143°
2026-04-15 12:38 50.15724 7.25240 17850 ft 414 kts 143°
2026-04-15 12:39 50.13451 7.27995 17116 ft 413 kts 143°
2026-04-15 12:39 50.11192 7.30737 16408 ft 413 kts 142°
2026-04-15 12:39 50.09196 7.33913 15780 ft 404 kts 128°
2026-04-15 12:39 50.07674 7.37527 14820 ft 394 kts 123°
2026-04-15 12:40 50.06223 7.41151 14189 ft 392 kts 123°
2026-04-15 12:40 50.04805 7.44743 13560 ft 389 kts 123°
2026-04-15 12:40 50.03400 7.48317 12947 ft 386 kts 123°
2026-04-15 12:40 50.02023 7.51809 12364 ft 369 kts 123°
2026-04-15 12:41 50.00713 7.55111 11816 ft 350 kts 123°
2026-04-15 12:41 49.99458 7.58261 11286 ft 335 kts 123°
2026-04-15 12:41 49.98251 7.61284 10779 ft 323 kts 123°
2026-04-15 12:41 49.97103 7.64152 10478 ft 305 kts 123°
2026-04-15 12:42 49.95995 7.66918 10255 ft 299 kts 123°
2026-04-15 12:42 49.94905 7.69635 10083 ft 295 kts 123°
2026-04-15 12:42 49.93830 7.72304 9959 ft 295 kts 123°
2026-04-15 12:42 49.92730 7.75030 9803 ft 294 kts 123°
2026-04-15 12:43 49.91663 7.77670 9686 ft 292 kts 123°
2026-04-15 12:43 49.90583 7.80344 9510 ft 293 kts 123°
2026-04-15 12:43 49.89559 7.83075 9080 ft 294 kts 115°
2026-04-15 12:43 49.89026 7.86117 8665 ft 294 kts 96°
2026-04-15 12:44 49.89119 7.89264 8361 ft 292 kts 79°
2026-04-15 12:44 49.89748 7.92240 7960 ft 291 kts 70°
2026-04-15 12:44 49.90479 7.95211 7247 ft 301 kts 70°
2026-04-15 12:44 49.91228 7.98300 6598 ft 308 kts 70°
2026-04-15 12:45 49.91979 8.01365 6394 ft 297 kts 70°
2026-04-15 12:45 49.92592 8.03862 6332 ft 284 kts 70°
2026-04-15 12:45 49.93274 8.06644 6134 ft 276 kts 70°
2026-04-15 12:45 49.93957 8.09443 5780 ft 273 kts 71°
2026-04-15 12:46 49.94622 8.12168 5420 ft 265 kts 70°
2026-04-15 12:46 49.95260 8.14781 5078 ft 253 kts 71°
2026-04-15 12:46 49.95861 8.17248 4739 ft 240 kts 71°
2026-04-15 12:46 49.96443 8.19637 4419 ft 235 kts 71°
2026-04-15 12:47 49.97016 8.21998 4107 ft 234 kts 71°
2026-04-15 12:47 49.97594 8.24379 3775 ft 235 kts 70°
2026-04-15 12:47 49.98168 8.26746 3473 ft 235 kts 70°
2026-04-15 12:47 49.98743 8.29119 3150 ft 234 kts 70°
2026-04-15 12:48 49.99314 8.31475 2841 ft 229 kts 71°
2026-04-15 12:48 49.99864 8.33754 2525 ft 218 kts 70°
2026-04-15 12:48 50.00377 8.35874 2249 ft 204 kts 71°
2026-04-15 12:48 50.00864 8.37894 1995 ft 190 kts 70°
2026-04-15 12:49 50.01310 8.39745 1722 ft 177 kts 70°
2026-04-15 12:49 50.01726 8.41469 1505 ft 163 kts 71°
2026-04-15 12:49 50.02108 8.43054 1256 ft 151 kts 71°
2026-04-15 12:49 50.02462 8.44525 1052 ft 142 kts 71°
2026-04-15 12:50 50.02800 8.45931 841 ft 137 kts 69°
2026-04-15 12:50 50.03138 8.47303 655 ft 135 kts 68°
2026-04-15 12:50 50.03457 8.48646 489 ft 134 kts 70°
2026-04-15 12:50 50.03775 8.50003 331 ft 132 kts 69°
2026-04-15 12:51 50.04059 8.51185 328 ft 100 kts 69°
2026-04-15 12:51 50.04276 8.52086 334 ft 80 kts 70°
2026-04-15 12:51 50.04440 8.52775 348 ft 53 kts 69°
2026-04-15 12:51 50.04540 8.53193 358 ft 22 kts 70°
2026-04-15 12:52 50.04536 8.53367 362 ft 14 kts 136°
2026-04-15 12:52 50.04453 8.53424 363 ft 13 kts 158°
2026-04-15 12:52 50.04397 8.53509 363 ft 11 kts 99°
2026-04-15 12:52 50.04405 8.53668 359 ft 18 kts 85°
2026-04-15 12:53 50.04419 8.53878 359 ft 21 kts 83°
2026-04-15 12:53 50.04435 8.54112 359 ft 23 kts 84°
2026-04-15 12:53 50.04452 8.54370 360 ft 25 kts 84°
2026-04-15 12:53 50.04416 8.54634 359 ft 27 kts 123°
2026-04-15 12:54 50.04262 8.54801 361 ft 22 kts 160°
2026-04-15 12:54 50.04111 8.54886 360 ft 19 kts 160°
2026-04-15 12:54 50.04017 8.54972 359 ft 13 kts 109°
2026-04-15 12:54 50.04042 8.55116 362 ft 17 kts 69°
2026-04-15 12:55 50.04100 8.55360 367 ft 29 kts 69°
2026-04-15 12:55 50.04172 8.55655 362 ft 30 kts 69°
2026-04-15 12:55 50.04241 8.55948 365 ft 29 kts 69°
2026-04-15 12:55 50.04312 8.56243 364 ft 30 kts 70°
2026-04-15 12:56 50.04384 8.56550 364 ft 31 kts 70°
2026-04-15 12:56 50.04459 8.56864 363 ft 31 kts 69°
2026-04-15 12:56 50.04537 8.57185 363 ft 32 kts 70°
2026-04-15 12:56 50.04610 8.57491 360 ft 30 kts 69°
2026-04-15 12:57 50.04683 8.57796 360 ft 30 kts 69°
2026-04-15 12:57 50.04789 8.58011 360 ft 24 kts 56°
2026-04-15 12:57 50.04850 8.58259 363 ft 25 kts 69°
2026-04-15 12:57 50.04914 8.58524 361 ft 27 kts 69°
2026-04-15 12:58 50.04980 8.58800 362 ft 28 kts 69°
2026-04-15 12:58 50.05035 8.59030 363 ft 18 kts 69°
2026-04-15 12:58 50.05060 8.59151 360 ft 9 kts 86°
2026-04-15 12:58 50.05020 8.59203 360 ft 7 kts 159°
2026-04-15 12:59 50.04993 8.59219 362 ft 0 kts 160°